TimePDT,TemperatureF,Dew PointF,Humidity,Sea Level PressureIn,VisibilityMPH,Wind Direction,Wind SpeedMPH,Gust SpeedMPH,PrecipitationIn,Events,Conditions,WindDirDegrees,DateUTC
12:15 AM,69.8,66.2,88,29.95,10.0,North,15.0,-,N/A,,Clear,360,2013-06-26 07:15:00
12:35 AM,69.8,66.2,88,29.95,10.0,North,13.8,-,N/A,,Clear,10,2013-06-26 07:35:00
12:55 AM,68.0,66.2,94,29.95,10.0,North,11.5,17.3,N/A,,Clear,10,2013-06-26 07:55:00
1:15 AM,68.0,66.2,94,29.95,10.0,North,12.7,-,N/A,,Clear,10,2013-06-26 08:15:00
1:35 AM,66.2,66.2,100,29.96,10.0,North,10.4,-,N/A,,Clear,10,2013-06-26 08:35:00
1:55 AM,66.2,66.2,100,29.96,10.0,NNE,9.2,-,N/A,,Clear,20,2013-06-26 08:55:00
2:15 AM,66.2,66.2,100,29.95,10.0,North,10.4,-,N/A,,Clear,360,2013-06-26 09:15:00
2:35 AM,66.2,66.2,100,29.95,10.0,North,9.2,-,N/A,,Clear,360,2013-06-26 09:35:00
2:55 AM,66.2,66.2,100,29.95,10.0,North,10.4,-,N/A,,Clear,360,2013-06-26 09:55:00
3:15 AM,64.4,64.4,100,29.95,10.0,North,10.4,-,N/A,,Clear,360,2013-06-26 10:15:00
3:35 AM,64.4,64.4,100,29.95,10.0,North,9.2,-,N/A,,Clear,360,2013-06-26 10:35:00
3:55 AM,64.4,64.4,100,29.96,10.0,North,10.4,-,N/A,,Clear,360,2013-06-26 10:55:00
4:15 AM,64.4,64.4,100,29.96,10.0,North,8.1,-,N/A,,Clear,360,2013-06-26 11:15:00
4:35 AM,64.4,64.4,100,29.97,10.0,North,9.2,-,N/A,,Clear,360,2013-06-26 11:35:00
4:55 AM,64.4,64.4,100,29.97,10.0,North,10.4,-,N/A,,Clear,360,2013-06-26 11:55:00
5:15 AM,64.4,64.4,100,29.97,10.0,North,9.2,-,N/A,,Clear,350,2013-06-26 12:15:00
5:35 AM,64.4,64.4,100,29.98,10.0,North,9.2,-,N/A,,Clear,10,2013-06-26 12:35:00
5:55 AM,64.4,64.4,100,29.98,10.0,North,8.1,-,N/A,,Clear,350,2013-06-26 12:55:00
6:15 AM,64.4,64.4,100,29.99,10.0,North,9.2,-,N/A,,Clear,350,2013-06-26 13:15:00
6:35 AM,66.2,66.2,100,30.00,10.0,North,9.2,-,N/A,,Clear,350,2013-06-26 13:35:00
6:45 AM,66.2,66.2,100,30.00,10.0,NNW,9.2,-,N/A,,Clear,330,2013-06-26 13:45:00
6:55 AM,68.0,66.2,94,30.00,10.0,North,8.1,-,N/A,,Clear,360,2013-06-26 13:55:00
7:45 AM,71.6,64.4,78,30.01,10.0,NNW,11.5,-,N/A,,Clear,340,2013-06-26 14:45:00
8:45 AM,75.2,64.4,69,30.02,10.0,North,13.8,-,N/A,,Clear,350,2013-06-26 15:45:00
9:45 AM,78.8,64.4,61,30.02,10.0,NNW,11.5,-,N/A,,Clear,330,2013-06-26 16:45:00
10:45 AM,82.4,62.6,51,30.02,10.0,NNW,11.5,-,N/A,,Clear,330,2013-06-26 17:45:00
11:45 AM,84.2,62.6,48,30.01,10.0,NNW,9.2,-,N/A,,Clear,330,2013-06-26 18:45:00
12:45 PM,89.6,62.6,40,30.00,10.0,NW,9.2,-,N/A,,Clear,320,2013-06-26 19:45:00
1:55 PM,91.4,60.8,36,29.99,10.0,NW,9.2,-,N/A,,Clear,310,2013-06-26 20:55:00
2:45 PM,93.2,60.8,34,29.97,10.0,NNW,12.7,-,N/A,,Clear,330,2013-06-26 21:45:00
3:45 PM,95.0,59.0,30,29.96,10.0,NNW,6.9,-,N/A,,Clear,340,2013-06-26 22:45:00
4:45 PM,95.0,57.2,28,29.94,10.0,NNW,11.5,-,N/A,,Clear,340,2013-06-26 23:45:00
5:45 PM,93.2,57.2,30,29.93,10.0,NNW,11.5,-,N/A,,Clear,340,2013-06-27 00:45:00
6:45 PM,91.4,59.0,34,29.93,10.0,NNW,11.5,-,N/A,,Clear,340,2013-06-27 01:45:00
7:50 PM,87.8,62.6,43,29.93,10.0,NNW,11.5,-,N/A,,Clear,340,2013-06-27 02:50:00
8:45 PM,82.4,64.4,54,29.95,10.0,NNW,11.5,-,N/A,,Clear,340,2013-06-27 03:45:00
9:15 PM,80.6,64.4,58,29.95,10.0,North,9.2,-,N/A,,Clear,10,2013-06-27 04:15:00
9:35 PM,78.8,64.4,61,29.96,10.0,North,11.5,-,N/A,,Clear,10,2013-06-27 04:35:00
9:55 PM,78.8,62.6,57,29.97,10.0,North,11.5,-,N/A,,Clear,10,2013-06-27 04:55:00
10:15 PM,78.8,62.6,57,29.98,10.0,North,11.5,-,N/A,,Clear,10,2013-06-27 05:15:00
10:35 PM,77.0,62.6,61,29.98,10.0,North,10.4,-,N/A,,Clear,10,2013-06-27 05:35:00
11:15 PM,75.2,60.8,61,29.99,10.0,North,9.2,-,N/A,,Clear,360,2013-06-27 06:15:00
11:35 PM,75.2,60.8,61,29.99,10.0,North,10.4,-,N/A,,Clear,10,2013-06-27 06:35:00
11:55 PM,73.4,60.8,65,30.00,10.0,North,12.7,-,N/A,,Clear,360,2013-06-27 06:55:00